Tracking 32577 objects as of 15-Dec-2025
HD Live streaming from Space Station
objects crossing your sky now

STARLINK-31112

Track STARLINK-31112 now!
10-day predictions
STARLINK-31112 is classified as:


NORAD ID: 58680
Int'l Code: 2023-211P
Perigee: 488.8 km
Apogee: 491.7 km
Inclination: 43.0 °
Period: 94.3 minutes
Semi major axis: 6861 km
RCS: Unknown
Launch date: December 29, 2023
Source: United States (US)
Launch site: AIR FORCE EASTERN TEST RANGE (AFETR)
Your satellite tracking list
Your tracking list is empty




NASA's NSSDC Master Catalog

Two Line Element Set (TLE):
1 58680U 23211P   25348.93762753  .00000296  00000-0  20303-4 0  9999
2 58680  43.0005 203.8486 0002123 286.0521  74.0097 15.27565190110688
Source of the keplerian elements: AFSPC